CST,Max TemperatureF,Mean TemperatureF,Min TemperatureF,Max Dew PointF,MeanDew PointF,Min DewpointF,Max Humidity, Mean Humidity, Min Humidity, Max Sea Level PressureIn, Mean Sea Level PressureIn, Min Sea Level PressureIn, Max VisibilityMiles, Mean VisibilityMiles, Min VisibilityMiles, Max Wind SpeedMPH, Mean Wind SpeedMPH, Max Gust SpeedMPH,PrecipitationIn, CloudCover, Events, WindDirDegrees
2012-11-1,73,56,39,47,42,37,97,71,32,30.13,30.06,30.01,10,7,2,10,1,,0.00,0,,317
2012-11-2,84,64,45,60,53,42,93,72,41,30.07,30.04,29.99,10,8,4,9,2,,0.00,1,,256
2012-11-3,84,68,55,60,57,53,93,69,36,30.15,30.09,30.03,10,8,4,12,4,18,0.01,0,,249
2012-11-4,69,60,50,59,56,42,94,82,61,30.15,30.11,30.06,10,8,2,9,6,,0.23,6,Rain-Thunderstorm,301
2012-11-5,57,47,37,48,43,37,100,88,53,30.15,30.06,29.97,10,4,0,14,2,23,0.38,5,Fog-Rain-Thunderstorm,354
2012-11-6,57,50,42,47,44,42,100,87,62,30.09,30.03,29.97,10,6,0,10,6,,0.00,7,Fog,318
2012-11-7,63,51,37,45,39,34,100,78,35,30.21,30.07,30.02,10,6,0,17,3,25,0.01,2,Fog,300
2012-11-8,63,48,33,42,36,31,93,75,35,30.32,30.26,30.21,10,8,2,5,2,,0.00,0,,319
2012-11-9,69,51,33,45,40,30,93,74,37,30.35,30.26,30.22,10,7,0,7,2,,0.00,2,Fog,144
2012-11-10,73,57,41,51,47,39,96,74,41,30.35,30.27,30.22,10,8,2,10,2,,0.00,0,,142
2012-11-11,75,64,54,57,53,49,90,69,50,30.29,30.21,30.14,10,10,10,13,7,23,0.00,3,,143
2012-11-12,64,52,37,61,50,31,94,83,59,30.45,30.26,30.11,10,8,2,24,10,39,0.60,6,Rain-Thunderstorm,323
2012-11-13,55,44,34,32,28,24,82,59,32,30.51,30.43,30.36,10,10,10,14,7,22,0.00,2,,359
2012-11-14,59,46,33,42,35,28,96,71,46,30.39,30.33,30.29,10,10,9,9,4,,0.00,2,,350
2012-11-15,62,47,32,44,38,30,96,75,46,30.36,30.31,30.27,10,9,5,8,2,,0.00,2,,10
2012-11-16,64,49,34,40,36,31,93,68,37,30.38,30.34,30.30,10,10,6,12,3,,0.00,0,,343
2012-11-17,64,47,30,38,34,29,92,67,29,30.46,30.39,30.35,10,10,7,8,3,,0.00,0,,39
2012-11-18,64,47,30,41,36,29,93,71,37,30.44,30.37,30.29,10,10,6,10,2,22,0.00,0,,66
2012-11-19,64,48,32,44,38,30,93,76,39,30.36,30.30,30.24,10,10,8,6,0,,0.00,2,,70
2012-11-20,68,54,41,47,44,39,93,75,42,30.27,30.21,30.16,10,10,6,6,1,,0.01,3,,333
2012-11-21,73,58,42,51,45,39,100,76,39,30.25,30.21,30.18,10,8,1,9,2,18,0.00,0,,328
2012-11-22,72,56,39,49,43,36,93,72,37,30.30,30.24,30.20,10,8,5,5,1,,0.00,0,,240
2012-11-23,68,56,43,53,47,37,93,74,55,30.29,30.24,30.18,10,9,7,13,5,,0.00,4,,307
2012-11-24,53,42,30,33,27,21,88,62,29,30.37,30.29,30.23,10,10,9,10,5,17,0.00,0,,342
2012-11-25,62,44,26,31,26,20,92,59,20,30.27,30.19,30.13,10,10,9,6,1,,0.00,0,,182
2012-11-26,63,49,35,59,49,31,97,82,63,30.22,30.15,30.11,10,9,6,6,1,,0.01,6,Rain,144
2012-11-27,59,52,44,57,51,38,100,92,79,30.36,30.19,30.08,10,5,0,18,5,30,0.74,7,Fog-Rain-Thunderstorm,354
2012-11-28,57,45,32,37,31,23,93,71,26,30.51,30.43,30.38,10,8,2,9,5,,0.00,2,,1
2012-11-29,62,45,28,42,34,26,96,76,41,30.46,30.39,30.32,10,9,6,6,1,,0.00,0,,129
2012-11-30,66,48,30,48,36,30,100,87,47,30.38,30.31,30.26,10,4,0,7,0,,0.00,3,Fog,154